SL-16 DEB

Satellite information

Favourite Embed

Satellite Type and Status

DEBRISIN ORBIT

Key statistics

Satellite SL-16 DEB at a glance.

Uptime

11882

Days in orbit

Revolutions

≈ 13.9

Per day

Orbit

LEO

Low Earth Orbit

Inclination

70.7

Latest

Satellite identification and parameters

Extended collection of information and parameters for SL-16 DEB.

Object identification

Identified? True

Debris? True

Object name: SL-16 DEB

International designator: 1992-093AE

Object number (NORAD): 22341

Object ID (CCSDS): 22341

Country: COMMONWEALTH OF INDEPENDENT STATES (CIS)

Current information (Y/N): Y

RCS size: SMALL

Orbital parameters

Period: 103.269 minutes

Inclination: 70.7454 deg

SMA: 7291.314 km

Apoapsis: 1014.261 km

Periapsis: 812.098 km

RAAN: 102.158 deg

Eccentricy: 0.0138633

Argument of periapsis: 141.7565 deg

Mean anomaly: 278.081 deg

Mean motion: 13.94421338 rev/day

Mean motion (dot): 0.00000288 rev/day2

B* drag term: 0.00023161 1/REarth

Two-line elements (TLE)

Creation date: July 6, 2025, 10:36 p.m.

Reference frame: TEME

Reference center: EARTH

Epoch: July 6, 2025, 8:02 p.m. UTC

TLE line 0: 0 SL-16 DEB

TLE line 1: 1 22341U 92093AE 25187.83531828 .00000288 00000-0 23161-3 0 9990

TLE line 2: 2 22341 70.7454 102.1580 0138633 141.7565 278.0810 13.94421338649846

Live tracking on map

Real-time ground track for satellite SL-16 DEB.

In-orbit conjunctions

A list of the most updated potential collisions computed for object SL-16 DEB.

Target Orbit TCA Probability of collision Miss distance Type
FENGYUN 1C DEB SSO 2025-02-03 10:23:50 0.0001524903 261.0 (m) DEBRIS
TECHSAT 1B SSO 2024-06-21 07:18:43 0.000125937 729.0 (m) PAYLOAD

Associated space launch

Second generation ELING satellite

SL-16 DEB was lifted into orbit during the mission ‘Zenit-2 | Tselina-2 12’, on board a Zenit-2 space rocket.

The launch took place on Dec. 25, 1992, 5:56 a.m. from 45/1.

For more information about the launch, click the button.

Launch to space Zenit-2 | Tselina-2 12
Zenit-2 | Tselina-2 12

Agency: N/A

Status: Launch Successful

Launch date: Dec. 25, 1992, 5:56 a.m. UTC

Rocket: Zenit-2

Launch pad: 45/1

Location: Baikonur Cosmodrome, Republic of Kazakhstan

...

Latest news about this satellite

There are no fresh news available about this satellite. Check back as we update our databases every day.


Newsletter sign-up

Weekly statistics, charts and insights to help you stay on top of the space industry.